When you browse on this site, cookies collect data to enhance your experience and personalize the content and advertising you see.
Visit our Privacy Policy to learn more. By continuing to use the site, you agree to this use of cookies and data.
  • In Hungary
  • List of Countries
  • For 7 days
  • Water Temperature
  • Satellite Maps
  • Weather Map
  • News
  • Weather Widgets
  • user-avatar
    Login

    Hourly Weather Buhusi

    Today, 22 March, Friday

    Time Temperature Precipitation Wind Pressure Humidity
    00:00 +7°C° 0 mm 1 mps 746 mmHg 57%
    01:00 +7°C° 0 mm 1 mps 746 mmHg 60%
    02:00 +7°C° 0 mm 1 mps 746 mmHg 63%
    03:00 +6°C° 0 mm 1 mps 745 mmHg 66%
    04:00 +6°C° 0 mm 1 mps 745 mmHg 69%
    05:00 +6°C° 0 mm 1 mps 745 mmHg 71%
    06:00 +6°C° 0 mm 1 mps 745 mmHg 69%
    07:00 +7°C° 0 mm 1 mps 745 mmHg 66%
    08:00 +8°C° 0 mm 1 mps 745 mmHg 64%
    09:00 +9°C° 0 mm 2 mps 745 mmHg 58%
    10:00 +10°C° 0 mm 2 mps 745 mmHg 52%
    11:00 +13°C° 0 mm 2 mps 744 mmHg 46%
    12:00 +13°C° 0 mm 3 mps 744 mmHg 44%
    13:00 +14°C° 0 mm 3 mps 744 mmHg 42%
    14:00 +15°C° 0 mm 4 mps 744 mmHg 39%
    15:00 +15°C° 0 mm 4 mps 743 mmHg 45%
    16:00 +14°C° 0 mm 4 mps 743 mmHg 50%
    17:00 +14°C° 0 mm 4 mps 743 mmHg 55%
    18:00 +12°C° 0 mm 4 mps 743 mmHg 62%
    19:00 +11°C° 0 mm 4 mps 743 mmHg 68%
    20:00 +10°C° 0 mm 4 mps 743 mmHg 75%
    21:00 +10°C° 0 mm 4 mps 743 mmHg 74%
    22:00 +8°C° 0 mm 4 mps 743 mmHg 74%
    23:00 +8°C° 0 mm 5 mps 744 mmHg 74%

    Tomorrow, 23 March, Saturday

    Time Temperature Precipitation Wind Pressure Humidity
    00:00 +8°C° 0 mm 4 mps 744 mmHg 74%
    01:00 +7°C° 0 mm 4 mps 744 mmHg 74%
    02:00 +7°C° 0 mm 4 mps 744 mmHg 74%
    03:00 +6°C° 0 mm 4 mps 743 mmHg 74%
    04:00 +6°C° 0 mm 4 mps 743 mmHg 75%
    05:00 +7°C° 0 mm 3 mps 743 mmHg 75%
    06:00 +6°C° 0 mm 4 mps 743 mmHg 72%
    07:00 +6°C° 0 mm 4 mps 743 mmHg 68%
    08:00 +6°C° 0 mm 5 mps 743 mmHg 64%
    09:00 +7°C° 0 mm 5 mps 743 mmHg 56%
    10:00 +8°C° 0 mm 6 mps 743 mmHg 47%
    11:00 +9°C° 0 mm 6 mps 743 mmHg 39%
    12:00 +9°C° 0 mm 6 mps 742 mmHg 34%
    13:00 +10°C° 0 mm 6 mps 742 mmHg 29%
    14:00 +11°C° 0 mm 6 mps 742 mmHg 25%
    15:00 +10°C° 0 mm 6 mps 741 mmHg 25%
    16:00 +10°C° 0 mm 6 mps 741 mmHg 25%
    17:00 +10°C° 0 mm 6 mps 741 mmHg 25%
    18:00 +8°C° 0 mm 4 mps 741 mmHg 29%
    19:00 +7°C° 0 mm 3 mps 741 mmHg 34%
    20:00 +6°C° 0 mm 2 mps 742 mmHg 39%
    21:00 +5°C° 0 mm 2 mps 742 mmHg 41%
    22:00 +6°C° 0 mm 1 mps 742 mmHg 43%
    23:00 +5°C° 0 mm 1 mps 742 mmHg 44%

    Day after tomorrow, 24 March, Sunday

    Time Temperature Precipitation Wind Pressure Humidity
    00:00 +5°C° 0 mm 1 mps 742 mmHg 45%
    01:00 +5°C° 0 mm 1 mps 742 mmHg 46%
    02:00 +5°C° 0 mm 1 mps 741 mmHg 46%
    03:00 +4°C° 0 mm 1 mps 741 mmHg 47%
    04:00 +4°C° 0 mm 1 mps 741 mmHg 47%
    05:00 +4°C° 0 mm 1 mps 741 mmHg 47%
    06:00 +5°C° 0 mm 1 mps 740 mmHg 44%
    07:00 +6°C° 0 mm 1 mps 740 mmHg 42%
    08:00 +7°C° 0 mm 1 mps 740 mmHg 39%
    09:00 +10°C° 0 mm 1 mps 740 mmHg 33%
    10:00 +13°C° 0 mm 1 mps 740 mmHg 28%
    11:00 +15°C° 0 mm 1 mps 739 mmHg 22%
    12:00 +16°C° 0 mm 1 mps 739 mmHg 22%
    13:00 +17°C° 0 mm 2 mps 738 mmHg 23%
    14:00 +18°C° 0 mm 3 mps 738 mmHg 23%
    15:00 +18°C° 0 mm 3 mps 738 mmHg 30%
    16:00 +17°C° 0 mm 4 mps 737 mmHg 37%
    17:00 +17°C° 0 mm 4 mps 737 mmHg 44%
    18:00 +14°C° 0 mm 4 mps 737 mmHg 57%
    19:00 +12°C° 0 mm 4 mps 737 mmHg 70%
    20:00 +10°C° 0 mm 4 mps 737 mmHg 82%
    21:00 +8°C° 0.1 mm 4 mps 737 mmHg 82%
    22:00 +9°C° 0.1 mm 3 mps 737 mmHg 82%
    23:00 +9°C° 0.1 mm 3 mps 737 mmHg 82%

    25 March, Monday

    Time Temperature Precipitation Wind Pressure Humidity
    00:00 +8°C° 0.9 mm 3 mps 737 mmHg 82%
    01:00 +8°C° 0.9 mm 3 mps 737 mmHg 81%
    02:00 +6°C° 0.9 mm 4 mps 737 mmHg 80%
    03:00 +6°C° 0.6 mm 4 mps 737 mmHg 77%
    04:00 +5°C° 0.6 mm 4 mps 737 mmHg 75%
    05:00 +4°C° 0.6 mm 4 mps 737 mmHg 72%
    06:00 +4°C° 0.2 mm 4 mps 737 mmHg 70%
    07:00 +5°C° 0.2 mm 4 mps 738 mmHg 68%
    08:00 +5°C° 0.2 mm 5 mps 738 mmHg 66%
    09:00 +5°C° 0 mm 4 mps 738 mmHg 61%
    10:00 +6°C° 0 mm 4 mps 738 mmHg 57%
    11:00 +7°C° 0 mm 4 mps 738 mmHg 52%
    12:00 +8°C° 0 mm 3 mps 738 mmHg 51%
    13:00 +9°C° 0 mm 3 mps 737 mmHg 50%
    14:00 +9°C° 0 mm 3 mps 737 mmHg 49%
    15:00 +9°C° 0 mm 3 mps 736 mmHg 50%
    16:00 +8°C° 0 mm 2 mps 736 mmHg 51%
    17:00 +8°C° 0 mm 2 mps 736 mmHg 52%
    18:00 +8°C° 0.2 mm 1 mps 736 mmHg 55%
    19:00 +8°C° 0.2 mm 1 mps 736 mmHg 59%
    20:00 +7°C° 0.2 mm 1 mps 736 mmHg 62%
    21:00 +7°C° 0.1 mm 1 mps 736 mmHg 64%
    22:00 +7°C° 0.1 mm 1 mps 736 mmHg 66%
    23:00 +6°C° 0.1 mm 1 mps 736 mmHg 68%

    26 March, Tuesday

    Time Temperature Precipitation Wind Pressure Humidity
    00:00 +6°C° 0.2 mm 1 mps 735 mmHg 70%
    01:00 +6°C° 0.2 mm 1 mps 735 mmHg 72%
    02:00 +5°C° 0.2 mm 1 mps 735 mmHg 74%
    03:00 +5°C° 0.3 mm 1 mps 734 mmHg 75%
    04:00 +5°C° 0.3 mm 1 mps 734 mmHg 77%
    05:00 +4°C° 0.3 mm 1 mps 734 mmHg 78%
    06:00 +5°C° 0 mm 1 mps 734 mmHg 76%
    07:00 +5°C° 0 mm 1 mps 734 mmHg 74%
    08:00 +5°C° 0 mm 0 mps 734 mmHg 71%
    09:00 +3°C° 0.8 mm 3 mps 734 mmHg 75%
    10:00 +1°C° 0.8 mm 5 mps 734 mmHg 79%
    11:00 -1°C° 0.8 mm 7 mps 735 mmHg 83%
    12:00 0°C° 0.4 mm 7 mps 735 mmHg 79%
    13:00 0°C° 0.4 mm 7 mps 735 mmHg 75%
    14:00 +2°C° 0.4 mm 7 mps 735 mmHg 71%
    15:00 +2°C° 0.1 mm 7 mps 736 mmHg 70%
    16:00 +3°C° 0.1 mm 6 mps 736 mmHg 68%
    17:00 +3°C° 0.1 mm 6 mps 736 mmHg 67%
    18:00 +2°C° 0 mm 5 mps 737 mmHg 70%
    19:00 +3°C° 0 mm 4 mps 738 mmHg 73%
    20:00 +1°C° 0 mm 4 mps 739 mmHg 76%
    21:00 +1°C° 0 mm 4 mps 739 mmHg 78%
    22:00 0°C° 0 mm 4 mps 740 mmHg 79%
    23:00 0°C° 0 mm 4 mps 740 mmHg 81%

    27 March, Wednesday

    Time Temperature Precipitation Wind Pressure Humidity
    00:00 0°C° 0 mm 4 mps 740 mmHg 82%
    01:00 0°C° 0 mm 3 mps 741 mmHg 83%
    02:00 0°C° 0 mm 3 mps 741 mmHg 84%
    03:00 0°C° 0 mm 3 mps 741 mmHg 85%
    04:00 0°C° 0 mm 3 mps 741 mmHg 85%
    05:00 -1°C° 0 mm 4 mps 742 mmHg 86%
    06:00 +1°C° 0 mm 3 mps 742 mmHg 80%
    07:00 +2°C° 0 mm 3 mps 742 mmHg 75%
    08:00 +2°C° 0 mm 3 mps 743 mmHg 69%
    09:00 +4°C° 0 mm 3 mps 742 mmHg 61%
    10:00 +6°C° 0 mm 2 mps 742 mmHg 53%
    11:00 +8°C° 0 mm 2 mps 742 mmHg 45%
    12:00 +9°C° 0 mm 2 mps 742 mmHg 42%
    13:00 +9°C° 0 mm 2 mps 741 mmHg 38%
    14:00 +10°C° 0 mm 2 mps 741 mmHg 35%
    15:00 +10°C° 0 mm 2 mps 741 mmHg 37%
    16:00 +10°C° 0 mm 2 mps 740 mmHg 38%
    17:00 +10°C° 0 mm 2 mps 740 mmHg 39%
    18:00 +9°C° 0 mm 2 mps 740 mmHg 46%
    19:00 +7°C° 0 mm 2 mps 741 mmHg 53%
    20:00 +6°C° 0 mm 2 mps 741 mmHg 60%
    21:00 +5°C° 0 mm 2 mps 741 mmHg 61%
    22:00 +4°C° 0 mm 2 mps 741 mmHg 62%
    23:00 +5°C° 0 mm 1 mps 741 mmHg 63%
    Show more